Weather History for KCUT - October, 2012

Change the Weather History Date:

Thursday, October 4, 2012

  Actual Average Record
Temperature  
Mean Temperature 35 °F 46 °F  
Max Temperature 44 °F 59 °F 81 °F (1992)
Min Temperature 26 °F 34 °F 16 °F (1964)
Degree Days  
Heating Degree Days 30 19  
Month to date heating degree days 70 73  
Since 1 July heating degree days 351 559  
Cooling Degree Days 0 0  
Month to date cooling degree days 0 0  
Year to date cooling degree days 390 177  
Moisture  
Dew Point 20 °F    
Average Humidity 54    
Maximum Humidity 75    
Minimum Humidity 33    
Precipitation  
Precipitation 0.00 in 0.06 in 1.00 in (2005)
Month to date precipitation 0.00 0.27  
Year to date precipitation 10.28 16.76  
Sea Level Pressure  
Sea Level Pressure 30.33 in    
Wind  
Wind Speed 6 mph (NE)    
Max Wind Speed 17 mph    
Max Gust Speed 22 mph    
Visibility 10 miles    
Events      
T = Trace of Precipitation, MM = Missing Value Source: NWS Daily Summary

Daily Weather History Graph

Daily Weather History Graph

Search for Another Location

Airport or City:

Trip Planner

Search our weather history database for the weather conditions in past years. The results will help you decide how hot, cold, wet, or windy it might be!

Date:

Astronomy

Oct. 04, 2012 Rise Set
Actual Time 6:56 AM MDT 6:29 PM MDT
Civil Twilight 6:27 AM MDT 6:57 PM MDT
Nautical Twilight 5:54 AM MDT 7:30 PM MDT
Astronomical Twilight 5:20 AM MDT 8:04 PM MDT
Moon 8:57 PM MDT (10/4) 11:23 AM MDT (10/4)
Length of Visible Light 12h 30m
Length of Day
11h 32m
Waning Gibbous, 81% of the Moon is Illuminated
Oct 4
Waning Gibbous
Oct 8
Last Quarter
Oct 15
New
Oct 21
First Quarter
Oct 29
Full

Hourly Weather History & Observations

Time (MDT) Temp. Windchill Dew Point Humidity Pressure Visibility Wind Dir Wind Speed Gust Speed Precip Events Conditions
12:53 AM 30.0 °F 21.1 °F 19.9 °F 66% 30.24 in 10.0 mi NW 10.4 mph 21.9 mph N/A   Partly Cloudy
1:53 AM 28.9 °F 25.2 °F 19.0 °F 67% 30.29 in 10.0 mi NNW 3.5 mph - N/A   Partly Cloudy
2:53 AM 27.0 °F 19.5 °F 18.0 °F 69% 30.31 in 10.0 mi NW 6.9 mph - N/A   Partly Cloudy
3:53 AM 27.0 °F 23.0 °F 18.0 °F 69% 30.31 in 10.0 mi WNW 3.5 mph - N/A   Clear
4:53 AM 27.0 °F 21.6 °F 18.0 °F 69% 30.33 in 10.0 mi NW 4.6 mph - N/A   Clear
5:53 AM 26.1 °F 19.4 °F 17.1 °F 69% 30.37 in 10.0 mi NNW 5.8 mph - N/A   Scattered Clouds
6:53 AM 27.0 °F 19.5 °F 18.0 °F 69% 30.37 in 10.0 mi Variable 6.9 mph - N/A   Partly Cloudy
7:53 AM 28.9 °F 25.2 °F 18.0 °F 64% 30.37 in 10.0 mi NNW 3.5 mph - N/A   Clear
8:53 AM 32.0 °F 25.6 °F 19.0 °F 59% 30.37 in 10.0 mi North 6.9 mph - N/A   Partly Cloudy
9:27 AM 32.0 °F 27.5 °F 19.4 °F 60% 30.31 in 10.0 mi Variable 4.6 mph - N/A   Mostly Cloudy
9:53 AM 30.9 °F 27.5 °F 19.0 °F 61% 30.39 in 10.0 mi Variable 3.5 mph - N/A   Mostly Cloudy
10:01 AM 30.2 °F - 19.4 °F 64% 30.31 in 10.0 mi Calm Calm - N/A   Scattered Clouds
10:10 AM 33.8 °F 28.6 °F 19.4 °F 56% 30.31 in 10.0 mi ENE 5.8 mph - N/A   Mostly Cloudy
10:36 AM 33.8 °F 30.8 °F 19.4 °F 56% 30.30 in 10.0 mi Variable 3.5 mph - N/A   Scattered Clouds
10:53 AM 35.1 °F 32.2 °F 19.0 °F 52% 30.35 in 10.0 mi North 3.5 mph - N/A   Clear
11:53 AM 39.0 °F 36.8 °F 17.1 °F 41% 30.33 in 10.0 mi Variable 3.5 mph - N/A   Clear
12:53 PM 43.0 °F 38.2 °F 16.0 °F 34% 30.29 in 10.0 mi NE 8.1 mph - N/A   Mostly Cloudy
1:53 PM 39.0 °F 33.4 °F 19.9 °F 46% 30.31 in 10.0 mi East 8.1 mph - N/A   Overcast
2:53 PM 37.9 °F 30.0 °F 19.9 °F 48% 30.31 in 10.0 mi East 12.7 mph - N/A   Mostly Cloudy
3:53 PM 36.0 °F 29.0 °F 19.0 °F 50% 30.32 in 10.0 mi East 9.2 mph - N/A   Overcast
4:53 PM 36.0 °F 29.6 °F 19.9 °F 52% 30.33 in 10.0 mi East 8.1 mph 16.1 mph N/A   Mostly Cloudy
5:53 PM 34.0 °F 27.2 °F 21.9 °F 61% 30.36 in 10.0 mi East 8.1 mph - N/A   Scattered Clouds
6:53 PM 32.0 °F 26.4 °F 23.0 °F 69% 30.37 in 10.0 mi East 5.8 mph - N/A   Clear
7:53 PM 30.9 °F 23.5 °F 23.0 °F 72% 30.38 in 10.0 mi ENE 8.1 mph - N/A   Partly Cloudy
8:32 PM 30.2 °F 23.4 °F 21.2 °F 69% 30.29 in 10.0 mi East 6.9 mph - N/A   Mostly Cloudy
8:53 PM 30.9 °F 23.5 °F 23.0 °F 72% 30.37 in 10.0 mi NE 8.1 mph - N/A   Overcast
9:22 PM 30.2 °F 20.8 °F 21.2 °F 69% 30.29 in 10.0 mi East 11.5 mph - N/A   Overcast
9:53 PM 28.9 °F 21.1 °F 21.0 °F 72% 30.38 in 10.0 mi ENE 8.1 mph - N/A   Overcast
10:19 PM 30.2 °F 21.9 °F 21.2 °F 69% 30.29 in 10.0 mi ENE 9.2 mph - N/A   Overcast
10:53 PM 28.9 °F 21.1 °F 21.0 °F 72% 30.36 in 10.0 mi ENE 8.1 mph - N/A   Mostly Cloudy
11:53 PM 28.0 °F 22.8 °F 21.0 °F 75% 30.33 in 10.0 mi NE 4.6 mph - N/A   Overcast